Time,TemperatureF,DewpointF,PressureIn,WindDirection,WindDirectionDegrees,WindSpeedMPH,WindSpeedGustMPH,Humidity,HourlyPrecipIn,Conditions,Clouds,dailyrainin,SoftwareType,DateUTC
2013-01-02 00:00:00,62.6,56.0,29.93,SSE,150,0.0,0.0,79,0.00,,,0.01,Wunderground v.1.15,2013-01-02 05:00:00,
2013-01-02 00:01:00,62.6,56.0,29.93,SSE,150,0.0,0.0,79,0.00,,,0.00,Wunderground v.1.15,2013-01-02 05:01:00,
2013-01-02 00:03:00,62.6,56.0,29.93,SSE,150,0.0,0.0,79,0.00,,,0.00,Wunderground v.1.15,2013-01-02 05:03:00,
2013-01-02 00:08:00,62.7,56.1,29.93,SSE,150,0.0,0.0,79,0.00,,,0.00,Wunderground v.1.15,2013-01-02 05:08:00,
2013-01-02 00:12:00,62.7,56.1,29.93,SSE,150,0.0,0.0,79,0.00,,,0.00,Wunderground v.1.15,2013-01-02 05:12:00,
2013-01-02 00:17:00,62.7,56.1,29.93,SSE,150,0.0,0.0,79,0.00,,,0.00,Wunderground v.1.15,2013-01-02 05:17:00,
2013-01-02 00:23:00,62.9,56.3,29.93,SSE,150,0.0,1.0,79,0.00,,,0.00,Wunderground v.1.15,2013-01-02 05:23:00,
2013-01-02 00:28:00,62.9,56.3,29.93,SSE,150,0.0,1.0,79,0.00,,,0.00,Wunderground v.1.15,2013-01-02 05:28:00,
2013-01-02 00:33:00,62.7,56.1,29.93,SSE,148,0.0,0.0,79,0.00,,,0.00,Wunderground v.1.15,2013-01-02 05:33:00,
2013-01-02 00:39:00,62.7,56.1,29.93,SSE,150,0.0,0.0,79,0.00,,,0.00,Wunderground v.1.15,2013-01-02 05:39:00,
2013-01-02 00:45:00,62.6,56.0,29.93,SSE,150,0.0,0.0,79,0.00,,,0.00,Wunderground v.1.15,2013-01-02 05:45:00,
2013-01-02 00:50:00,62.4,55.8,29.92,SSE,150,0.0,0.0,79,0.00,,,0.00,Wunderground v.1.15,2013-01-02 05:50:00,
2013-01-02 00:56:00,62.3,56.0,29.92,SSE,150,0.0,0.0,80,0.00,,,0.00,Wunderground v.1.15,2013-01-02 05:56:00,
2013-01-02 01:01:00,62.1,55.9,29.92,SSE,150,0.0,0.0,80,0.00,,,0.00,Wunderground v.1.15,2013-01-02 06:01:00,
2013-01-02 01:06:00,62.0,55.8,29.92,SSE,150,0.0,0.0,80,0.00,,,0.00,Wunderground v.1.15,2013-01-02 06:06:00,
2013-01-02 01:12:00,62.1,56.2,29.92,SSE,150,0.0,0.0,81,0.00,,,0.00,Wunderground v.1.15,2013-01-02 06:12:00,
2013-01-02 01:17:00,62.1,56.2,29.92,SSE,150,0.0,0.0,81,0.00,,,0.00,Wunderground v.1.15,2013-01-02 06:17:00,
2013-01-02 01:22:00,62.1,56.2,29.92,SSE,150,0.0,0.0,81,0.00,,,0.00,Wunderground v.1.15,2013-01-02 06:22:00,
2013-01-02 01:28:00,62.1,56.2,29.92,SSE,150,0.0,0.0,81,0.00,,,0.00,Wunderground v.1.15,2013-01-02 06:28:00,
2013-01-02 01:34:00,62.4,56.8,29.92,SSE,150,0.0,0.0,82,0.00,,,0.00,Wunderground v.1.15,2013-01-02 06:34:00,
2013-01-02 01:39:00,62.6,57.0,29.92,SSE,150,0.0,0.0,82,0.00,,,0.00,Wunderground v.1.15,2013-01-02 06:39:00,
2013-01-02 01:44:00,62.7,57.1,29.92,SSE,150,0.0,0.0,82,0.00,,,0.00,Wunderground v.1.15,2013-01-02 06:44:00,
2013-01-02 01:50:00,62.9,57.3,29.92,South,189,0.0,0.0,82,0.00,,,0.00,Wunderground v.1.15,2013-01-02 06:50:00,
2013-01-02 01:55:00,63.1,57.5,29.92,SSE,165,0.0,1.0,82,0.00,,,0.00,Wunderground v.1.15,2013-01-02 06:55:00,
2013-01-02 02:01:00,63.1,57.9,29.92,SSE,162,0.0,0.0,83,0.00,,,0.00,Wunderground v.1.15,2013-01-02 07:01:00,
2013-01-02 02:06:00,63.2,57.9,29.92,SSE,160,0.0,1.0,83,0.00,,,0.00,Wunderground v.1.15,2013-01-02 07:06:00,
2013-01-02 02:11:00,63.4,58.1,29.92,SSE,160,0.0,0.0,83,0.00,,,0.00,Wunderground v.1.15,2013-01-02 07:11:00,
2013-01-02 02:16:00,63.5,58.2,29.91,SSE,161,0.0,3.0,83,0.00,,,0.00,Wunderground v.1.15,2013-01-02 07:16:00,
2013-01-02 02:21:00,63.5,58.2,29.91,SSE,158,0.0,0.0,83,0.00,,,0.00,Wunderground v.1.15,2013-01-02 07:21:00,
2013-01-02 02:26:00,63.5,58.2,29.91,SSE,160,0.0,0.0,83,0.00,,,0.00,Wunderground v.1.15,2013-01-02 07:26:00,
2013-01-02 02:31:00,63.5,58.2,29.91,SSE,168,0.0,0.0,83,0.00,,,0.00,Wunderground v.1.15,2013-01-02 07:31:00,
2013-01-02 02:36:00,63.5,58.2,29.91,South,179,0.0,1.0,83,0.00,,,0.00,Wunderground v.1.15,2013-01-02 07:36:00,
2013-01-02 02:41:00,63.7,58.4,29.91,SSW,205,1.0,2.0,83,0.00,,,0.00,Wunderground v.1.15,2013-01-02 07:41:00,
2013-01-02 02:46:00,63.7,58.4,29.91,South,188,2.0,3.0,83,0.00,,,0.00,Wunderground v.1.15,2013-01-02 07:46:00,
2013-01-02 02:51:00,63.7,58.8,29.91,SSE,155,0.0,0.0,84,0.00,,,0.00,Wunderground v.1.15,2013-01-02 07:51:00,
2013-01-02 02:56:00,63.7,58.8,29.91,SSE,152,0.0,2.0,84,0.00,,,0.00,Wunderground v.1.15,2013-01-02 07:56:00,
2013-01-02 03:01:00,63.7,58.8,29.91,SSW,193,0.0,2.0,84,0.00,,,0.00,Wunderground v.1.15,2013-01-02 08:01:00,
2013-01-02 03:06:00,63.9,59.0,29.91,South,178,0.0,2.0,84,0.00,,,0.00,Wunderground v.1.15,2013-01-02 08:06:00,
2013-01-02 03:11:00,63.9,59.0,29.91,SSE,152,0.0,5.0,84,0.00,,,0.00,Wunderground v.1.15,2013-01-02 08:11:00,
2013-01-02 03:16:00,63.9,59.0,29.91,SSE,165,3.0,5.0,84,0.00,,,0.00,Wunderground v.1.15,2013-01-02 08:16:00,
2013-01-02 03:21:00,63.9,59.0,29.91,SSE,161,0.0,1.0,84,0.00,,,0.00,Wunderground v.1.15,2013-01-02 08:21:00,
2013-01-02 03:26:00,64.0,59.1,29.91,SSW,196,0.0,5.0,84,0.00,,,0.00,Wunderground v.1.15,2013-01-02 08:26:00,
2013-01-02 03:31:00,64.0,59.1,29.90,South,172,0.0,6.0,84,0.00,,,0.00,Wunderground v.1.15,2013-01-02 08:31:00,
2013-01-02 03:36:00,64.2,59.6,29.90,SSE,160,0.0,7.0,85,0.00,,,0.00,Wunderground v.1.15,2013-01-02 08:36:00,
2013-01-02 03:41:00,64.3,59.7,29.90,SSW,208,0.0,1.0,85,0.00,,,0.00,Wunderground v.1.15,2013-01-02 08:41:00,
2013-01-02 03:46:00,64.3,59.7,29.90,SSE,160,0.0,6.0,85,0.00,,,0.00,Wunderground v.1.15,2013-01-02 08:46:00,
2013-01-02 03:51:00,64.5,59.9,29.90,SSE,158,0.0,1.0,85,0.00,,,0.00,Wunderground v.1.15,2013-01-02 08:51:00,
2013-01-02 03:56:00,64.5,59.9,29.90,SSE,147,2.0,2.0,85,0.00,,,0.00,Wunderground v.1.15,2013-01-02 08:56:00,
2013-01-02 04:01:00,64.5,59.9,29.91,SW,215,0.0,0.0,85,0.00,,,0.00,Wunderground v.1.15,2013-01-02 09:01:00,
2013-01-02 04:06:00,64.5,59.9,29.91,SW,216,0.0,0.0,85,0.00,,,0.00,Wunderground v.1.15,2013-01-02 09:06:00,
2013-01-02 04:11:00,64.5,59.9,29.91,SSE,157,0.0,0.0,85,0.00,,,0.00,Wunderground v.1.15,2013-01-02 09:11:00,
2013-01-02 04:16:00,64.5,59.9,29.91,SSE,157,0.0,1.0,85,0.00,,,0.00,Wunderground v.1.15,2013-01-02 09:16:00,
2013-01-02 04:21:00,64.5,59.9,29.91,SSE,157,0.0,0.0,85,0.00,,,0.00,Wunderground v.1.15,2013-01-02 09:21:00,
2013-01-02 04:26:00,64.5,59.9,29.91,SSE,157,0.0,0.0,85,0.00,,,0.00,Wunderground v.1.15,2013-01-02 09:26:00,
2013-01-02 04:31:00,64.5,59.9,29.92,SSE,157,0.0,0.0,85,0.00,,,0.00,Wunderground v.1.15,2013-01-02 09:31:00,
2013-01-02 04:36:00,64.5,60.2,29.92,SSE,157,0.0,2.0,86,0.00,,,0.00,Wunderground v.1.15,2013-01-02 09:36:00,
2013-01-02 04:41:00,64.5,60.2,29.92,SSE,157,0.0,0.0,86,0.00,,,0.00,Wunderground v.1.15,2013-01-02 09:41:00,
2013-01-02 04:46:00,64.7,60.4,29.92,SSE,157,0.0,0.0,86,0.00,,,0.00,Wunderground v.1.15,2013-01-02 09:46:00,
2013-01-02 04:51:00,64.7,60.4,29.92,SSE,157,0.0,0.0,86,0.00,,,0.00,Wunderground v.1.15,2013-01-02 09:51:00,
2013-01-02 04:56:00,64.8,60.5,29.92,SSE,157,0.0,0.0,86,0.00,,,0.00,Wunderground v.1.15,2013-01-02 09:56:00,
2013-01-02 05:01:00,64.8,60.5,29.92,SSE,157,0.0,0.0,86,0.00,,,0.00,Wunderground v.1.15,2013-01-02 10:01:00,
2013-01-02 05:06:00,64.8,60.5,29.92,SSE,157,0.0,1.0,86,0.00,,,0.00,Wunderground v.1.15,2013-01-02 10:06:00,
2013-01-02 05:11:00,65.0,60.7,29.92,SSE,157,0.0,0.0,86,0.00,,,0.00,Wunderground v.1.15,2013-01-02 10:11:00,
2013-01-02 05:16:00,65.0,60.7,29.92,SSE,157,0.0,0.0,86,0.00,,,0.00,Wunderground v.1.15,2013-01-02 10:16:00,
2013-01-02 05:21:00,65.0,60.7,29.92,SSE,157,0.0,1.0,86,0.00,,,0.00,Wunderground v.1.15,2013-01-02 10:21:00,
2013-01-02 05:26:00,65.0,61.0,29.92,SSE,157,0.0,1.0,87,0.00,,,0.00,Wunderground v.1.15,2013-01-02 10:26:00,
2013-01-02 05:31:00,65.0,61.0,29.92,SSE,157,0.0,2.0,87,0.00,,,0.00,Wunderground v.1.15,2013-01-02 10:31:00,
2013-01-02 05:36:00,65.0,61.0,29.92,SSE,157,0.0,2.0,87,0.00,,,0.00,Wunderground v.1.15,2013-01-02 10:36:00,
2013-01-02 05:41:00,65.2,61.2,29.92,SSW,195,0.0,3.0,87,0.00,,,0.00,Wunderground v.1.15,2013-01-02 10:41:00,
2013-01-02 05:46:00,65.2,61.2,29.92,SSW,195,0.0,3.0,87,0.00,,,0.00,Wunderground v.1.15,2013-01-02 10:46:00,
2013-01-02 05:51:00,65.2,61.2,29.92,SSW,195,0.0,0.0,87,0.00,,,0.00,Wunderground v.1.15,2013-01-02 10:51:00,
2013-01-02 05:56:00,65.2,61.2,29.92,SSE,158,0.0,4.0,87,0.00,,,0.00,Wunderground v.1.15,2013-01-02 10:56:00,
2013-01-02 06:01:00,65.3,61.3,29.92,SSE,158,0.0,0.0,87,0.00,,,0.00,Wunderground v.1.15,2013-01-02 11:01:00,
2013-01-02 06:06:00,65.5,61.5,29.92,SSE,158,0.0,0.0,87,0.00,,,0.00,Wunderground v.1.15,2013-01-02 11:06:00,
2013-01-02 06:11:00,65.6,61.9,29.92,SSE,157,0.0,3.0,88,0.00,,,0.00,Wunderground v.1.15,2013-01-02 11:11:00,
2013-01-02 06:16:00,65.6,61.9,29.91,SSE,158,0.0,3.0,88,0.00,,,0.00,Wunderground v.1.15,2013-01-02 11:16:00,
2013-01-02 06:21:00,65.8,62.1,29.91,SSE,158,0.0,1.0,88,0.00,,,0.00,Wunderground v.1.15,2013-01-02 11:21:00,
2013-01-02 06:26:00,65.8,62.1,29.91,South,175,0.0,1.0,88,0.00,,,0.00,Wunderground v.1.15,2013-01-02 11:26:00,
2013-01-02 06:31:00,65.8,62.1,29.92,South,175,0.0,0.0,88,0.00,,,0.00,Wunderground v.1.15,2013-01-02 11:31:00,
2013-01-02 06:36:00,66.0,62.3,29.92,SE,144,0.0,0.0,88,0.00,,,0.00,Wunderground v.1.15,2013-01-02 11:36:00,
2013-01-02 06:41:00,66.0,62.3,29.92,SE,144,0.0,0.0,88,0.00,,,0.00,Wunderground v.1.15,2013-01-02 11:41:00,
2013-01-02 06:46:00,66.1,62.4,29.92,SE,145,0.0,0.0,88,0.00,,,0.00,Wunderground v.1.15,2013-01-02 11:46:00,
2013-01-02 06:51:00,66.3,62.6,29.92,SE,144,0.0,0.0,88,0.00,,,0.00,Wunderground v.1.15,2013-01-02 11:51:00,
2013-01-02 06:56:00,66.3,62.6,29.92,SE,144,0.0,0.0,88,0.00,,,0.00,Wunderground v.1.15,2013-01-02 11:56:00,
2013-01-02 07:01:00,66.3,62.6,29.92,SE,144,0.0,0.0,88,0.00,,,0.00,Wunderground v.1.15,2013-01-02 12:01:00,
2013-01-02 07:06:00,66.3,62.6,29.92,SE,144,0.0,0.0,88,0.00,,,0.00,Wunderground v.1.15,2013-01-02 12:06:00,
2013-01-02 07:11:00,66.3,62.6,29.92,SE,144,0.0,0.0,88,0.00,,,0.00,Wunderground v.1.15,2013-01-02 12:11:00,
2013-01-02 07:16:00,66.1,62.4,29.93,SE,144,0.0,0.0,88,0.00,,,0.00,Wunderground v.1.15,2013-01-02 12:16:00,
2013-01-02 07:21:00,66.1,62.4,29.93,SE,145,0.0,0.0,88,0.00,,,0.00,Wunderground v.1.15,2013-01-02 12:21:00,
2013-01-02 07:26:00,66.1,62.4,29.93,SE,144,0.0,0.0,88,0.00,,,0.00,Wunderground v.1.15,2013-01-02 12:26:00,
2013-01-02 07:31:00,66.3,62.6,29.92,SE,144,0.0,0.0,88,0.00,,,0.00,Wunderground v.1.15,2013-01-02 12:31:00,
2013-01-02 07:36:00,66.3,62.6,29.92,SE,144,0.0,0.0,88,0.00,,,0.00,Wunderground v.1.15,2013-01-02 12:36:00,
2013-01-02 07:41:00,66.1,62.4,29.92,SE,144,0.0,0.0,88,0.00,,,0.00,Wunderground v.1.15,2013-01-02 12:41:00,
2013-01-02 07:46:00,66.3,62.6,29.93,SE,145,0.0,0.0,88,0.00,,,0.00,Wunderground v.1.15,2013-01-02 12:46:00,
2013-01-02 07:51:00,66.3,62.6,29.93,SE,144,0.0,0.0,88,0.00,,,0.00,Wunderground v.1.15,2013-01-02 12:51:00,
2013-01-02 07:56:00,66.1,62.4,29.93,SE,145,0.0,0.0,88,0.00,,,0.00,Wunderground v.1.15,2013-01-02 12:56:00,
2013-01-02 08:01:00,66.1,62.4,29.93,SE,144,0.0,0.0,88,0.00,,,0.00,Wunderground v.1.15,2013-01-02 13:01:00,
2013-01-02 08:06:00,66.1,62.8,29.93,SE,144,0.0,0.0,89,0.00,,,0.00,Wunderground v.1.15,2013-01-02 13:06:00,
2013-01-02 08:12:00,66.1,62.8,29.93,SE,144,0.0,0.0,89,0.00,,,0.00,Wunderground v.1.15,2013-01-02 13:12:00,
2013-01-02 08:17:00,66.3,63.0,29.94,SE,144,0.0,0.0,89,0.00,,,0.00,Wunderground v.1.15,2013-01-02 13:17:00,
2013-01-02 08:22:00,66.4,63.1,29.94,SE,144,0.0,0.0,89,0.00,,,0.00,Wunderground v.1.15,2013-01-02 13:22:00,
2013-01-02 08:27:00,66.6,63.3,29.94,SE,144,0.0,1.0,89,0.00,,,0.00,Wunderground v.1.15,2013-01-02 13:27:00,
2013-01-02 08:32:00,66.8,63.5,29.94,SE,144,0.0,0.0,89,0.00,,,0.00,Wunderground v.1.15,2013-01-02 13:32:00,
2013-01-02 08:37:00,66.8,63.5,29.94,SE,144,0.0,0.0,89,0.00,,,0.00,Wunderground v.1.15,2013-01-02 13:37:00,
2013-01-02 08:42:00,66.9,63.6,29.94,SE,144,0.0,0.0,89,0.00,,,0.00,Wunderground v.1.15,2013-01-02 13:42:00,
2013-01-02 08:47:00,67.1,63.7,29.94,SE,144,0.0,2.0,89,0.00,,,0.00,Wunderground v.1.15,2013-01-02 13:47:00,
2013-01-02 08:52:00,67.3,63.9,29.94,SE,144,0.0,1.0,89,0.00,,,0.00,Wunderground v.1.15,2013-01-02 13:52:00,
2013-01-02 08:57:00,67.4,64.0,29.94,SSE,150,0.0,3.0,89,0.00,,,0.00,Wunderground v.1.15,2013-01-02 13:57:00,
2013-01-02 09:02:00,67.8,64.8,29.95,SSW,200,0.0,0.0,90,0.00,,,0.00,Wunderground v.1.15,2013-01-02 14:02:00,
2013-01-02 09:07:00,68.3,64.9,29.95,SSE,161,0.0,4.0,89,0.00,,,0.00,Wunderground v.1.15,2013-01-02 14:07:00,
2013-01-02 09:12:00,68.8,65.7,29.95,SSW,196,1.0,1.0,90,0.00,,,0.00,Wunderground v.1.15,2013-01-02 14:12:00,
2013-01-02 09:17:00,69.4,66.0,29.95,ESE,109,2.0,6.0,89,0.00,,,0.00,Wunderground v.1.15,2013-01-02 14:17:00,
2013-01-02 09:22:00,69.8,66.4,29.95,SE,143,3.0,3.0,89,0.00,,,0.00,Wunderground v.1.15,2013-01-02 14:22:00,
2013-01-02 09:27:00,69.9,66.5,29.95,South,185,0.0,7.0,89,0.00,,,0.00,Wunderground v.1.15,2013-01-02 14:27:00,
2013-01-02 09:32:00,70.3,66.9,29.95,SSE,154,0.0,6.0,89,0.00,,,0.00,Wunderground v.1.15,2013-01-02 14:32:00,
2013-01-02 09:37:00,70.6,67.2,29.95,South,174,0.0,6.0,89,0.00,,,0.00,Wunderground v.1.15,2013-01-02 14:37:00,
2013-01-02 09:42:00,71.1,67.4,29.95,SSE,148,6.0,6.0,88,0.00,,,0.00,Wunderground v.1.15,2013-01-02 14:42:00,
2013-01-02 09:47:00,71.3,67.6,29.95,South,186,0.0,6.0,88,0.00,,,0.00,Wunderground v.1.15,2013-01-02 14:47:00,
2013-01-02 09:53:00,71.5,67.8,29.95,WSW,240,0.0,4.0,88,0.00,,,0.00,Wunderground v.1.15,2013-01-02 14:53:00,
2013-01-02 09:58:00,71.6,67.9,29.95,South,171,0.0,4.0,88,0.00,,,0.00,Wunderground v.1.15,2013-01-02 14:58:00,
2013-01-02 10:03:00,72.0,67.9,29.95,SE,144,0.0,1.0,87,0.00,,,0.00,Wunderground v.1.15,2013-01-02 15:03:00,
2013-01-02 10:08:00,72.5,68.4,29.95,South,175,0.0,6.0,87,0.00,,,0.00,Wunderground v.1.15,2013-01-02 15:08:00,
2013-01-02 10:13:00,72.8,68.0,29.95,SSE,148,3.0,7.0,85,0.00,,,0.00,Wunderground v.1.15,2013-01-02 15:13:00,
2013-01-02 10:18:00,73.2,68.4,29.95,SSW,213,0.0,8.0,85,0.00,,,0.00,Wunderground v.1.15,2013-01-02 15:18:00,
2013-01-02 10:23:00,73.5,68.4,29.95,SSW,198,2.0,7.0,84,0.00,,,0.00,Wunderground v.1.15,2013-01-02 15:23:00,
2013-01-02 10:28:00,73.7,68.2,29.95,South,186,0.0,7.0,83,0.00,,,0.00,Wunderground v.1.15,2013-01-02 15:28:00,
2013-01-02 10:33:00,73.9,68.4,29.95,SE,140,0.0,8.0,83,0.00,,,0.00,Wunderground v.1.15,2013-01-02 15:33:00,
2013-01-02 10:38:00,74.0,68.2,29.95,WSW,237,2.0,8.0,82,0.00,,,0.00,Wunderground v.1.15,2013-01-02 15:38:00,
2013-01-02 10:43:00,74.2,68.0,29.95,SSW,192,2.0,5.0,81,0.00,,,0.00,Wunderground v.1.15,2013-01-02 15:43:00,
2013-01-02 10:48:00,74.6,68.4,29.95,SSW,198,6.0,6.0,81,0.00,,,0.00,Wunderground v.1.15,2013-01-02 15:48:00,
2013-01-02 10:53:00,75.1,68.9,29.95,WSW,240,3.0,8.0,81,0.00,,,0.00,Wunderground v.1.15,2013-01-02 15:53:00,
2013-01-02 10:58:00,75.4,68.4,29.95,SSW,209,0.0,8.0,79,0.00,,,0.00,Wunderground v.1.15,2013-01-02 15:58:00,
2013-01-02 11:03:00,76.1,69.1,29.95,SW,222,0.0,5.0,79,0.00,,,0.00,Wunderground v.1.15,2013-01-02 16:03:00,
2013-01-02 11:08:00,76.5,68.7,29.95,South,182,1.0,10.0,77,0.00,,,0.00,Wunderground v.1.15,2013-01-02 16:08:00,
2013-01-02 11:13:00,76.8,68.7,29.95,SW,229,0.0,12.0,76,0.00,,,0.00,Wunderground v.1.15,2013-01-02 16:13:00,
2013-01-02 11:18:00,77.4,69.2,29.94,South,188,0.0,12.0,76,0.00,,,0.00,Wunderground v.1.15,2013-01-02 16:18:00,
2013-01-02 11:23:00,77.7,69.1,29.94,SW,217,2.0,8.0,75,0.00,,,0.00,Wunderground v.1.15,2013-01-02 16:23:00,
2013-01-02 11:28:00,77.9,68.9,29.94,SSW,202,0.0,8.0,74,0.00,,,0.00,Wunderground v.1.15,2013-01-02 16:28:00,
2013-01-02 11:33:00,78.3,68.9,29.94,SSE,147,1.0,7.0,73,0.00,,,0.00,Wunderground v.1.15,2013-01-02 16:33:00,
2013-01-02 11:38:00,78.5,68.7,29.94,SSE,167,6.0,11.0,72,0.00,,,0.00,Wunderground v.1.15,2013-01-02 16:38:00,
2013-01-02 11:43:00,78.6,68.8,29.94,SW,227,3.0,8.0,72,0.00,,,0.00,Wunderground v.1.15,2013-01-02 16:43:00,
2013-01-02 11:48:00,79.0,69.2,29.93,SW,229,1.0,8.0,72,0.00,,,0.00,Wunderground v.1.15,2013-01-02 16:48:00,
2013-01-02 11:53:00,79.4,69.6,29.93,SSW,205,4.0,8.0,72,0.00,,,0.00,Wunderground v.1.15,2013-01-02 16:53:00,
2013-01-02 11:58:00,79.8,69.6,29.93,South,169,0.0,8.0,71,0.00,,,0.00,Wunderground v.1.15,2013-01-02 16:58:00,
2013-01-02 12:03:00,79.9,69.7,29.92,South,189,6.0,6.0,71,0.00,,,0.00,Wunderground v.1.15,2013-01-02 17:03:00,
2013-01-02 12:08:00,80.1,69.4,29.92,SE,140,6.0,8.0,70,0.00,,,0.00,Wunderground v.1.15,2013-01-02 17:08:00,
2013-01-02 12:13:00,79.9,69.2,29.92,South,178,0.0,8.0,70,0.00,,,0.00,Wunderground v.1.15,2013-01-02 17:13:00,
2013-01-02 12:18:00,79.8,69.1,29.92,SSW,193,1.0,8.0,70,0.00,,,0.00,Wunderground v.1.15,2013-01-02 17:18:00,
2013-01-02 12:23:00,79.8,69.1,29.92,SSE,158,0.0,8.0,70,0.00,,,0.00,Wunderground v.1.15,2013-01-02 17:23:00,
2013-01-02 12:28:00,79.9,69.2,29.92,South,191,5.0,8.0,70,0.00,,,0.00,Wunderground v.1.15,2013-01-02 17:28:00,
2013-01-02 12:33:00,79.9,69.2,29.91,South,174,0.0,8.0,70,0.00,,,0.00,Wunderground v.1.15,2013-01-02 17:33:00,
2013-01-02 12:38:00,79.9,68.8,29.91,South,186,6.0,9.0,69,0.00,,,0.00,Wunderground v.1.15,2013-01-02 17:38:00,
2013-01-02 12:43:00,79.8,68.7,29.91,WSW,237,3.0,8.0,69,0.00,,,0.00,Wunderground v.1.15,2013-01-02 17:43:00,
2013-01-02 12:48:00,79.8,68.7,29.91,SW,215,3.0,9.0,69,0.00,,,0.00,Wunderground v.1.15,2013-01-02 17:48:00,
2013-01-02 12:53:00,79.9,68.8,29.91,SSW,192,1.0,5.0,69,0.00,,,0.00,Wunderground v.1.15,2013-01-02 17:53:00,
2013-01-02 12:58:00,80.3,68.8,29.91,SSE,160,0.0,7.0,68,0.00,,,0.00,Wunderground v.1.15,2013-01-02 17:58:00,
2013-01-02 13:03:00,80.3,68.8,29.90,NW,326,0.0,8.0,68,0.00,,,0.00,Wunderground v.1.15,2013-01-02 18:03:00,
2013-01-02 13:08:00,80.3,68.8,29.90,SSW,209,1.0,8.0,68,0.00,,,0.00,Wunderground v.1.15,2013-01-02 18:08:00,
2013-01-02 13:13:00,80.5,69.0,29.90,SW,217,0.0,7.0,68,0.00,,,0.00,Wunderground v.1.15,2013-01-02 18:13:00,
2013-01-02 13:18:00,80.5,68.5,29.90,SSW,196,8.0,11.0,67,0.00,,,0.00,Wunderground v.1.15,2013-01-02 18:18:00,
2013-01-02 13:23:00,80.3,68.3,29.90,WNW,298,0.0,7.0,67,0.00,,,0.00,Wunderground v.1.15,2013-01-02 18:23:00,
2013-01-02 13:28:00,80.3,68.3,29.90,WSW,257,3.0,7.0,67,0.00,,,0.00,Wunderground v.1.15,2013-01-02 18:28:00,
2013-01-02 13:33:00,80.3,68.3,29.90,SSW,200,2.0,9.0,67,0.00,,,0.00,Wunderground v.1.15,2013-01-02 18:33:00,
2013-01-02 13:38:00,80.3,68.3,29.90,South,191,5.0,9.0,67,0.00,,,0.00,Wunderground v.1.15,2013-01-02 18:38:00,
2013-01-02 13:43:00,80.3,68.3,29.90,East,85,1.0,7.0,67,0.00,,,0.00,Wunderground v.1.15,2013-01-02 18:43:00,
2013-01-02 13:48:00,80.1,68.6,29.90,SSW,193,0.0,7.0,68,0.00,,,0.00,Wunderground v.1.15,2013-01-02 18:48:00,
2013-01-02 13:53:00,79.9,68.4,29.90,South,184,5.0,12.0,68,0.00,,,0.00,Wunderground v.1.15,2013-01-02 18:53:00,
2013-01-02 13:58:00,79.8,68.3,29.90,WNW,288,3.0,12.0,68,0.00,,,0.00,Wunderground v.1.15,2013-01-02 18:58:00,
2013-01-02 14:03:00,79.8,68.3,29.89,SSW,203,3.0,10.0,68,0.00,,,0.00,Wunderground v.1.15,2013-01-02 19:03:00,
2013-01-02 14:08:00,79.6,67.7,29.89,SSW,210,0.0,10.0,67,0.00,,,0.00,Wunderground v.1.15,2013-01-02 19:08:00,
2013-01-02 14:13:00,79.6,68.1,29.89,SSW,202,5.0,7.0,68,0.00,,,0.00,Wunderground v.1.15,2013-01-02 19:13:00,
2013-01-02 14:18:00,79.4,67.9,29.89,South,181,6.0,13.0,68,0.00,,,0.00,Wunderground v.1.15,2013-01-02 19:18:00,
2013-01-02 14:23:00,79.2,67.7,29.89,SSW,206,1.0,8.0,68,0.00,,,0.00,Wunderground v.1.15,2013-01-02 19:23:00,
2013-01-02 14:28:00,79.2,67.7,29.89,SSW,196,0.0,8.0,68,0.00,,,0.00,Wunderground v.1.15,2013-01-02 19:28:00,
2013-01-02 14:33:00,79.2,67.7,29.89,South,169,0.0,8.0,68,0.00,,,0.00,Wunderground v.1.15,2013-01-02 19:33:00,
2013-01-02 14:38:00,79.2,67.7,29.89,SSW,195,6.0,10.0,68,0.00,,,0.00,Wunderground v.1.15,2013-01-02 19:38:00,
2013-01-02 14:43:00,79.2,67.7,29.89,WNW,292,3.0,10.0,68,0.00,,,0.00,Wunderground v.1.15,2013-01-02 19:43:00,
2013-01-02 14:48:00,78.8,66.9,29.89,West,267,5.0,10.0,67,0.00,,,0.00,Wunderground v.1.15,2013-01-02 19:48:00,
2013-01-02 14:53:00,78.6,67.2,29.89,SW,220,7.0,7.0,68,0.00,,,0.00,Wunderground v.1.15,2013-01-02 19:53:00,
2013-01-02 14:58:00,78.3,66.9,29.89,SW,233,0.0,13.0,68,0.00,,,0.00,Wunderground v.1.15,2013-01-02 19:58:00,
2013-01-02 15:03:00,77.9,66.5,29.89,SW,222,6.0,11.0,68,0.00,,,0.00,Wunderground v.1.15,2013-01-02 20:03:00,
2013-01-02 15:08:00,77.7,66.3,29.89,SSW,203,6.0,11.0,68,0.00,,,0.00,Wunderground v.1.15,2013-01-02 20:08:00,
2013-01-02 15:13:00,77.6,66.6,29.89,West,270,0.0,6.0,69,0.00,,,0.00,Wunderground v.1.15,2013-01-02 20:13:00,
2013-01-02 15:18:00,77.4,66.4,29.89,SE,134,2.0,10.0,69,0.00,,,0.00,Wunderground v.1.15,2013-01-02 20:18:00,
2013-01-02 15:23:00,77.2,66.2,29.89,SSW,212,3.0,8.0,69,0.00,,,0.00,Wunderground v.1.15,2013-01-02 20:23:00,
2013-01-02 15:28:00,77.0,66.5,29.89,WSW,237,0.0,8.0,70,0.00,,,0.00,Wunderground v.1.15,2013-01-02 20:28:00,
2013-01-02 15:33:00,76.8,66.3,29.89,SSW,196,3.0,7.0,70,0.00,,,0.00,Wunderground v.1.15,2013-01-02 20:33:00,
2013-01-02 15:38:00,76.7,66.6,29.89,South,182,3.0,11.0,71,0.00,,,0.00,Wunderground v.1.15,2013-01-02 20:38:00,
2013-01-02 15:43:00,76.5,66.4,29.89,SSE,168,0.0,4.0,71,0.00,,,0.00,Wunderground v.1.15,2013-01-02 20:43:00,
2013-01-02 15:48:00,76.0,66.3,29.90,SSW,203,8.0,8.0,72,0.00,,,0.00,Wunderground v.1.15,2013-01-02 20:48:00,
2013-01-02 15:53:00,75.6,65.9,29.90,South,175,0.0,2.0,72,0.00,,,0.00,Wunderground v.1.15,2013-01-02 20:53:00,
2013-01-02 15:58:00,75.4,65.7,29.90,WSW,241,0.0,10.0,72,0.00,,,0.00,Wunderground v.1.15,2013-01-02 20:58:00,
2013-01-02 16:03:00,75.3,65.6,29.90,SSW,196,0.0,3.0,72,0.00,,,0.00,Wunderground v.1.15,2013-01-02 21:03:00,
2013-01-02 16:08:00,74.9,65.7,29.90,South,175,0.0,7.0,73,0.00,,,0.00,Wunderground v.1.15,2013-01-02 21:08:00,
2013-01-02 16:13:00,74.7,65.5,29.90,SSE,158,0.0,2.0,73,0.00,,,0.00,Wunderground v.1.15,2013-01-02 21:13:00,
2013-01-02 16:18:00,74.6,65.8,29.90,SSW,208,0.0,3.0,74,0.00,,,0.00,Wunderground v.1.15,2013-01-02 21:18:00,
2013-01-02 16:23:00,74.4,65.6,29.90,South,181,0.0,7.0,74,0.00,,,0.00,Wunderground v.1.15,2013-01-02 21:23:00,
2013-01-02 16:28:00,74.2,65.4,29.90,SSW,206,0.0,7.0,74,0.00,,,0.00,Wunderground v.1.15,2013-01-02 21:28:00,
2013-01-02 16:33:00,74.0,65.2,29.90,SSW,208,0.0,1.0,74,0.00,,,0.00,Wunderground v.1.15,2013-01-02 21:33:00,
2013-01-02 16:38:00,73.7,65.3,29.90,SSW,208,0.0,3.0,75,0.00,,,0.00,Wunderground v.1.15,2013-01-02 21:38:00,
2013-01-02 16:43:00,73.5,65.1,29.90,SW,220,0.0,6.0,75,0.00,,,0.00,Wunderground v.1.15,2013-01-02 21:43:00,
2013-01-02 16:49:00,73.2,64.8,29.90,SW,222,0.0,6.0,75,0.00,,,0.00,Wunderground v.1.15,2013-01-02 21:49:00,
2013-01-02 16:54:00,73.2,65.2,29.90,SW,232,0.0,1.0,76,0.00,,,0.00,Wunderground v.1.15,2013-01-02 21:54:00,
2013-01-02 16:59:00,73.0,65.0,29.90,SW,232,0.0,1.0,76,0.00,,,0.00,Wunderground v.1.15,2013-01-02 21:59:00,
2013-01-02 17:04:00,72.8,64.8,29.90,SW,232,0.0,0.0,76,0.00,,,0.00,Wunderground v.1.15,2013-01-02 22:04:00,
2013-01-02 17:09:00,72.7,64.7,29.90,WSW,240,0.0,1.0,76,0.00,,,0.00,Wunderground v.1.15,2013-01-02 22:09:00,
2013-01-02 17:14:00,72.5,64.5,29.90,SSW,206,0.0,0.0,76,0.00,,,0.00,Wunderground v.1.15,2013-01-02 22:14:00,
2013-01-02 17:19:00,72.3,64.7,29.91,SW,215,0.0,2.0,77,0.00,,,0.00,Wunderground v.1.15,2013-01-02 22:19:00,
2013-01-02 17:24:00,72.1,64.5,29.91,SSW,206,0.0,3.0,77,0.00,,,0.00,Wunderground v.1.15,2013-01-02 22:24:00,
2013-01-02 17:29:00,71.8,64.2,29.91,SW,226,2.0,3.0,77,0.00,,,0.00,Wunderground v.1.15,2013-01-02 22:29:00,
2013-01-02 17:34:00,71.6,64.4,29.91,SW,224,0.0,0.0,78,0.00,,,0.00,Wunderground v.1.15,2013-01-02 22:34:00,
2013-01-02 17:39:00,71.5,64.3,29.91,SW,219,0.0,3.0,78,0.00,,,0.00,Wunderground v.1.15,2013-01-02 22:39:00,
2013-01-02 17:44:00,71.3,64.1,29.91,SW,219,0.0,0.0,78,0.00,,,0.00,Wunderground v.1.15,2013-01-02 22:44:00,
2013-01-02 17:49:00,71.1,63.9,29.91,SW,219,0.0,0.0,78,0.00,,,0.00,Wunderground v.1.15,2013-01-02 22:49:00,
2013-01-02 17:54:00,70.8,64.0,29.91,SW,217,0.0,1.0,79,0.00,,,0.00,Wunderground v.1.15,2013-01-02 22:54:00,
2013-01-02 17:59:00,70.6,63.8,29.91,SW,217,0.0,1.0,79,0.00,,,0.00,Wunderground v.1.15,2013-01-02 22:59:00,
2013-01-02 18:04:00,70.4,63.6,29.92,SW,217,0.0,0.0,79,0.00,,,0.00,Wunderground v.1.15,2013-01-02 23:04:00,
2013-01-02 18:09:00,70.3,63.5,29.92,SW,217,0.0,0.0,79,0.00,,,0.00,Wunderground v.1.15,2013-01-02 23:09:00,
2013-01-02 18:14:00,70.1,63.3,29.92,SW,217,0.0,0.0,79,0.00,,,0.00,Wunderground v.1.15,2013-01-02 23:14:00,
2013-01-02 18:19:00,69.9,63.4,29.92,SW,217,0.0,0.0,80,0.00,,,0.00,Wunderground v.1.15,2013-01-02 23:19:00,
2013-01-02 18:24:00,69.8,63.3,29.92,SW,219,0.0,0.0,80,0.00,,,0.00,Wunderground v.1.15,2013-01-02 23:24:00,
2013-01-02 18:29:00,69.6,63.2,29.92,SW,217,0.0,0.0,80,0.00,,,0.00,Wunderground v.1.15,2013-01-02 23:29:00,
2013-01-02 18:34:00,69.4,63.0,29.92,SW,217,0.0,0.0,80,0.00,,,0.00,Wunderground v.1.15,2013-01-02 23:34:00,
2013-01-02 18:39:00,69.3,62.9,29.92,SW,217,0.0,0.0,80,0.00,,,0.00,Wunderground v.1.15,2013-01-02 23:39:00,
2013-01-02 18:44:00,69.1,62.7,29.92,SW,217,0.0,0.0,80,0.00,,,0.00,Wunderground v.1.15,2013-01-02 23:44:00,
2013-01-02 18:49:00,69.1,62.7,29.92,SW,217,0.0,0.0,80,0.00,,,0.00,Wunderground v.1.15,2013-01-02 23:49:00,
2013-01-02 18:54:00,68.9,62.5,29.92,SW,217,0.0,0.0,80,0.00,,,0.00,Wunderground v.1.15,2013-01-02 23:54:00,
2013-01-02 18:59:00,68.8,62.7,29.92,SW,217,0.0,0.0,81,0.00,,,0.00,Wunderground v.1.15,2013-01-02 23:59:00,
2013-01-02 19:04:00,68.6,62.5,29.93,SW,217,0.0,0.0,81,0.00,,,0.00,Wunderground v.1.15,2013-01-03 00:04:00,
2013-01-02 19:10:00,68.4,62.3,29.93,SW,217,0.0,0.0,81,0.00,,,0.00,Wunderground v.1.15,2013-01-03 00:10:00,
2013-01-02 19:15:00,68.3,62.2,29.93,SW,217,0.0,0.0,81,0.00,,,0.00,Wunderground v.1.15,2013-01-03 00:15:00,
2013-01-02 19:20:00,68.1,62.0,29.93,SW,217,0.0,0.0,81,0.00,,,0.00,Wunderground v.1.15,2013-01-03 00:20:00,
2013-01-02 19:25:00,68.1,62.0,29.93,SW,217,0.0,0.0,81,0.00,,,0.00,Wunderground v.1.15,2013-01-03 00:25:00,
2013-01-02 19:30:00,67.9,61.9,29.93,SW,217,0.0,0.0,81,0.00,,,0.00,Wunderground v.1.15,2013-01-03 00:30:00,
2013-01-02 19:36:00,67.8,61.8,29.93,SW,217,0.0,0.0,81,0.00,,,0.00,Wunderground v.1.15,2013-01-03 00:36:00,
2013-01-02 19:41:00,67.6,61.9,29.93,SW,217,0.0,0.0,82,0.00,,,0.00,Wunderground v.1.15,2013-01-03 00:41:00,
2013-01-02 19:46:00,67.4,61.7,29.93,SW,217,0.0,0.0,82,0.00,,,0.00,Wunderground v.1.15,2013-01-03 00:46:00,
2013-01-02 19:51:00,67.3,61.6,29.93,SW,217,0.0,0.0,82,0.00,,,0.00,Wunderground v.1.15,2013-01-03 00:51:00,
2013-01-02 19:56:00,67.1,61.4,29.93,SW,217,0.0,0.0,82,0.00,,,0.00,Wunderground v.1.15,2013-01-03 00:56:00,
2013-01-02 20:01:00,66.9,61.2,29.94,SW,217,0.0,0.0,82,0.00,,,0.00,Wunderground v.1.15,2013-01-03 01:01:00,
2013-01-02 20:06:00,66.9,61.2,29.94,SW,217,0.0,0.0,82,0.00,,,0.00,Wunderground v.1.15,2013-01-03 01:06:00,
2013-01-02 20:11:00,66.8,61.1,29.94,SW,217,0.0,0.0,82,0.00,,,0.00,Wunderground v.1.15,2013-01-03 01:11:00,
2013-01-02 20:16:00,66.6,60.9,29.94,SW,217,0.0,0.0,82,0.00,,,0.00,Wunderground v.1.15,2013-01-03 01:16:00,
2013-01-02 20:21:00,66.4,60.7,29.94,SW,217,0.0,0.0,82,0.00,,,0.00,Wunderground v.1.15,2013-01-03 01:21:00,
2013-01-02 20:26:00,66.4,61.1,29.94,SW,217,0.0,0.0,83,0.00,,,0.00,Wunderground v.1.15,2013-01-03 01:26:00,
2013-01-02 20:31:00,66.3,61.0,29.94,SW,217,0.0,0.0,83,0.00,,,0.00,Wunderground v.1.15,2013-01-03 01:31:00,
2013-01-02 20:36:00,66.1,60.8,29.94,SW,217,0.0,0.0,83,0.00,,,0.00,Wunderground v.1.15,2013-01-03 01:36:00,
2013-01-02 20:41:00,66.1,60.8,29.94,SW,217,0.0,0.0,83,0.00,,,0.00,Wunderground v.1.15,2013-01-03 01:41:00,
2013-01-02 20:46:00,66.0,60.7,29.94,SW,217,0.0,0.0,83,0.00,,,0.00,Wunderground v.1.15,2013-01-03 01:46:00,
2013-01-02 20:51:00,66.0,60.7,29.94,SW,217,0.0,0.0,83,0.00,,,0.00,Wunderground v.1.15,2013-01-03 01:51:00,
2013-01-02 20:56:00,65.8,60.5,29.94,SW,217,0.0,0.0,83,0.00,,,0.00,Wunderground v.1.15,2013-01-03 01:56:00,
2013-01-02 21:01:00,65.8,60.5,29.95,SW,217,0.0,0.0,83,0.00,,,0.00,Wunderground v.1.15,2013-01-03 02:01:00,
2013-01-02 21:06:00,65.6,60.6,29.95,SW,217,0.0,0.0,84,0.00,,,0.00,Wunderground v.1.15,2013-01-03 02:06:00,
2013-01-02 21:11:00,65.6,60.6,29.95,SW,217,0.0,0.0,84,0.00,,,0.00,Wunderground v.1.15,2013-01-03 02:11:00,
2013-01-02 21:16:00,65.6,60.6,29.95,SW,217,0.0,0.0,84,0.00,,,0.00,Wunderground v.1.15,2013-01-03 02:16:00,
2013-01-02 21:21:00,65.6,60.6,29.95,SW,217,0.0,0.0,84,0.00,,,0.00,Wunderground v.1.15,2013-01-03 02:21:00,
2013-01-02 21:26:00,65.6,60.6,29.95,SW,217,0.0,0.0,84,0.00,,,0.00,Wunderground v.1.15,2013-01-03 02:26:00,
2013-01-02 21:31:00,65.5,60.5,29.96,SW,217,0.0,0.0,84,0.00,,,0.00,Wunderground v.1.15,2013-01-03 02:31:00,
2013-01-02 21:36:00,65.5,60.5,29.96,SW,217,0.0,0.0,84,0.00,,,0.00,Wunderground v.1.15,2013-01-03 02:36:00,
2013-01-02 21:41:00,65.5,60.5,29.96,SW,217,0.0,0.0,84,0.00,,,0.00,Wunderground v.1.15,2013-01-03 02:41:00,
2013-01-02 21:46:00,65.5,60.5,29.96,SW,217,0.0,0.0,84,0.00,,,0.00,Wunderground v.1.15,2013-01-03 02:46:00,
2013-01-02 21:51:00,65.5,60.9,29.96,SW,217,0.0,0.0,85,0.00,,,0.00,Wunderground v.1.15,2013-01-03 02:51:00,
2013-01-02 21:56:00,65.5,60.9,29.96,SW,217,0.0,0.0,85,0.00,,,0.00,Wunderground v.1.15,2013-01-03 02:56:00,
2013-01-02 22:01:00,65.5,60.9,29.96,SW,217,0.0,0.0,85,0.00,,,0.00,Wunderground v.1.15,2013-01-03 03:01:00,
2013-01-02 22:07:00,65.5,60.9,29.96,SW,217,0.0,0.0,85,0.00,,,0.00,Wunderground v.1.15,2013-01-03 03:07:00,
2013-01-02 22:12:00,65.5,60.9,29.96,SW,217,0.0,0.0,85,0.00,,,0.00,Wunderground v.1.15,2013-01-03 03:12:00,
2013-01-02 22:17:00,65.5,60.9,29.96,SW,217,0.0,0.0,85,0.00,,,0.00,Wunderground v.1.15,2013-01-03 03:17:00,
2013-01-02 22:22:00,65.5,60.9,29.96,SW,217,0.0,0.0,85,0.00,,,0.00,Wunderground v.1.15,2013-01-03 03:22:00,
2013-01-02 22:27:00,65.5,61.2,29.96,SW,217,0.0,0.0,86,0.00,,,0.00,Wunderground v.1.15,2013-01-03 03:27:00,
2013-01-02 22:32:00,65.3,61.0,29.96,SW,217,0.0,0.0,86,0.00,,,0.00,Wunderground v.1.15,2013-01-03 03:32:00,
2013-01-02 22:38:00,65.3,61.0,29.96,SW,217,0.0,0.0,86,0.00,,,0.00,Wunderground v.1.15,2013-01-03 03:38:00,
2013-01-02 22:44:00,65.3,61.0,29.96,SW,217,0.0,0.0,86,0.00,,,0.00,Wunderground v.1.15,2013-01-03 03:44:00,
2013-01-02 22:49:00,65.3,61.0,29.96,SW,217,0.0,0.0,86,0.00,,,0.00,Wunderground v.1.15,2013-01-03 03:49:00,
2013-01-02 22:55:00,65.3,61.0,29.96,SW,217,0.0,0.0,86,0.00,,,0.00,Wunderground v.1.15,2013-01-03 03:55:00,
2013-01-02 23:00:00,65.3,61.0,29.96,SW,217,0.0,0.0,86,0.00,,,0.00,Wunderground v.1.15,2013-01-03 04:00:00,
2013-01-02 23:05:00,65.3,61.0,29.96,SW,217,0.0,0.0,86,0.00,,,0.00,Wunderground v.1.15,2013-01-03 04:05:00,
2013-01-02 23:10:00,65.5,61.5,29.96,SW,217,0.0,0.0,87,0.00,,,0.00,Wunderground v.1.15,2013-01-03 04:10:00,
2013-01-02 23:15:00,65.5,61.2,29.96,SW,217,0.0,0.0,86,0.00,,,0.00,Wunderground v.1.15,2013-01-03 04:15:00,
2013-01-02 23:20:00,65.5,61.2,29.96,SW,217,0.0,0.0,86,0.00,,,0.00,Wunderground v.1.15,2013-01-03 04:20:00,
2013-01-02 23:25:00,65.5,61.2,29.96,SW,217,0.0,0.0,86,0.00,,,0.00,Wunderground v.1.15,2013-01-03 04:25:00,
2013-01-02 23:30:00,65.5,61.5,29.96,SW,217,0.0,0.0,87,0.00,,,0.00,Wunderground v.1.15,2013-01-03 04:30:00,
2013-01-02 23:35:00,65.5,61.2,29.95,SW,217,0.0,0.0,86,0.00,,,0.00,Wunderground v.1.15,2013-01-03 04:35:00,
2013-01-02 23:40:00,65.5,61.5,29.95,SW,217,0.0,0.0,87,0.00,,,0.00,Wunderground v.1.15,2013-01-03 04:40:00,
2013-01-02 23:45:00,65.5,61.5,29.95,SW,217,0.0,0.0,87,0.00,,,0.00,Wunderground v.1.15,2013-01-03 04:45:00,
2013-01-02 23:50:00,65.5,61.5,29.95,SW,217,0.0,0.0,87,0.00,,,0.00,Wunderground v.1.15,2013-01-03 04:50:00,
2013-01-02 23:55:00,65.5,61.5,29.95,SW,217,0.0,0.0,87,0.00,,,0.00,Wunderground v.1.15,2013-01-03 04:55:00,